Swarm A

operational
NORAD ID: 39452 Int'l Des: 2013-067 Owner: ESA Country: I-ESA Constellation: swarm
LEOCIRCULARPOLAR

About Swarm A

Description loading...

Live Position

Loading 3D Globe...

Upcoming Passes

Altitude History

Altitude vs Time

uPlot chart will show altitude changes over time

Two-Line Element Set

1 39452U 13067B 25298.26491227 .00012313 00000-0 25976-3 0 9991
2 39452 87.3371 143.0960 0002830 85.6893 274.4688 15.45077600669903
Epoch: Oct 25, 2025 • Age: 7 hours

Current Status

Altitude 441.0 km
Velocity 7.65 km/s
Sub-Earth Point 66.84°N, 77.92°W
Launch Date Nov 22, 2013
Age 11.9 years
Type other

Technical Details

Classification Payload
Mass 473.00 kg
Dry Mass 367.00 kg
Total Mass 473.00 kg
Length 5.00 m
Diameter 1.50 m
Span 9.30 m
Shape Half hex prism+ boom
Manufacturer EASF
Bus Type Flexbus
Phase Status In Orbit
Owner/State ESA/I-ESA

Large Constellations

Loading constellations...